This demonstration page uses our WeatherBlox Daily Observations layout. Learn more.

Hourly Observations for February 10, 2020

Temp ( °F °C ) Dew Point ( °F °C ) Humidity (%) Winds ( mph kmh ) Pressure ( in mb ) Visibility ( mi km ) Precip ( " mm )
12:15 am 00:15 Mostly Cloudy 24 -4.7 20 -6.4 88 88 Calm 30.28 1025 10 16.0934 0 0
12:35 am 00:35 Mostly Cloudy 25 -3.7 20 -6.5 81 81 SSW 3 6 30.27 1025 10 16.0934 0 0
12:55 am 00:55 Partly Cloudy 25 -3.7 20 -6.7 80 80 S 6 9 30.27 1025 10 16.0934 0 0
1:15 am 01:15 Partly Cloudy 26 -3.5 19 -7 77 77 SSW 8 13 30.27 1025 10 16.0934 0 0
1:35 am 01:35 Partly Cloudy 24 -4.2 19 -7 81 81 SSW 7 11 30.27 1025 10 16.0934 0 0
1:55 am 01:55 Partly Cloudy 23 -5 19 -7.2 85 85 SW 5 7 30.26 1025 10 16.0934 0 0
2:15 am 02:15 Clear 23 -5.2 19 -7.2 86 86 Calm 30.27 1025 10 16.0934 0 0
2:35 am 02:35 Clear 23 -5.1 19 -7.4 84 84 SW 3 6 30.27 1025 10 16.0934 0 0
2:55 am 02:55 Clear 22 -5.5 18 -7.6 85 85 SW 3 6 30.27 1025 10 16.0934 0 0
3:15 am 03:15 Clear 22 -5.7 18 -7.7 86 86 SW 5 7 30.26 1025 10 16.0934 0 0
3:35 am 03:35 Clear 22 -5.6 19 -7.5 87 87 SW 7 11 30.26 1025 10 16.0934 0 0
3:55 am 03:55 Clear 23 -5.2 19 -7.4 85 85 SW 6 9 30.25 1024 10 16.0934 0 0
4:15 am 04:15 Clear 23 -5.2 19 -7.3 85 85 SSW 3 6 30.25 1024 10 16.0934 0 0
4:35 am 04:35 Clear 23 -5 19 -7 86 86 SSW 6 9 30.23 1024 10 16.0934 0 0
4:55 am 04:55 Clear 23 -4.9 19 -7.2 84 84 SSW 6 9 30.22 1023 10 16.0934 0 0
5:15 am 05:15 Clear 23 -5.2 19 -7.5 84 84 SSW 6 9 30.23 1024 10 16.0934 0 0
5:35 am 05:35 Clear 24 -4.5 19 -7 83 83 SSW 8 13 30.22 1023 10 16.0934 0 0
5:55 am 05:55 Clear 24 -4.6 19 -7.1 83 83 SW 6 9 30.22 1023 10 16.0934 0 0
6:15 am 06:15 Clear 23 -5 19 -7.3 84 84 SW 8 13 30.22 1023 10 16.0934 0 0
6:35 am 06:35 Clear 23 -5 19 -7.5 83 83 SW 8 13 30.22 1023 10 16.0934 0 0
6:55 am 06:55 Clear 23 -5.2 19 -7.5 84 84 SW 8 13 30.24 1024 10 16.0934 0 0
7:15 am 07:15 Clear 23 -5.2 19 -7.5 84 84 SW 8 13 30.24 1024 10 16.0934 0 0
7:35 am 07:35 Clear 22 -5.5 18 -7.6 85 85 SW 8 13 30.24 1024 10 16.0934 0 0
7:55 am 07:55 Sunny 22 -5.6 18 -7.6 86 86 SW 5 7 30.25 1024 10 16.0934 0 0
8:15 am 08:15 Sunny 22 -5.5 18 -7.6 85 85 SW 6 9 30.25 1024 10 16.0934 0 0
8:35 am 08:35 Sunny 23 -5 19 -7.3 84 84 SW 8 13 30.26 1025 10 16.0934 0 0
8:55 am 08:55 Sunny 24 -4.4 19 -7.1 82 82 SW 8 13 30.26 1025 10 16.0934 0 0
9:15 am 09:15 Sunny 25 -3.9 20 -6.6 82 82 SW 7 11 30.25 1024 10 16.0934 0 0
9:35 am 09:35 Sunny 27 -3 21 -6.3 78 78 SW 9 15 30.24 1024 10 16.0934 0 0
9:55 am 09:55 Sunny 28 -2.2 22 -5.8 77 77 WSW 9 15 30.24 1024 10 16.0934 0 0
10:15 am 10:15 Sunny 28 -2 22 -5.6 77 77 SW 9 15 30.23 1024 10 16.0934 0 0
10:35 am 10:35 Sunny 29 -1.6 22 -5.6 74 74 WSW 12 19 30.23 1024 10 16.0934 0 0
10:55 am 10:55 Sunny 30 -1 22 -5.6 71 71 WSW 8 13 30.23 1024 10 16.0934 0 0
11:15 am 11:15 Sunny 31 -0.3 23 -5.2 70 70 WSW 12 19 30.24 1024 10 16.0934 0 0
11:35 am 11:35 Sunny 32 0 23 -4.9 70 70 WSW 12 19 30.24 1024 10 16.0934 0 0
11:55 am 11:55 Sunny 33 0.7 24 -4.5 69 69 W 13 20 30.22 1023 10 16.0934 0 0
12:15 pm 12:15 Sunny 35 1.4 23 -5.1 62 62 W 8 13 30.2 1023 10 16.0934 0 0
12:35 pm 12:35 Sunny 36 2 22 -5.8 57 57 WNW 8 13 30.2 1023 10 16.0934 0 0
12:55 pm 12:55 Sunny 37 2.6 22 -5.5 56 56 NW 8 13 30.18 1022 10 16.0934 0 0
1:15 pm 13:15 Sunny 38 3.2 22 -5.3 54 54 NNW 7 11 30.16 1021 10 16.0934 0 0
1:35 pm 13:35 Sunny 39 4 22 -5.6 50 50 NNW 5 7 30.15 1021 10 16.0934 0 0
1:55 pm 13:55 Sunny 40 4.7 20 -6.4 45 45 N 7 11 30.14 1021 10 16.0934 0 0
2:15 pm 14:15 Sunny 41 4.8 21 -6.3 45 45 N 7 11 30.13 1020 10 16.0934 0 0
2:35 pm 14:35 Sunny 41 5.1 21 -6 45 45 N 7 11 30.12 1020 10 16.0934 0 0
2:55 pm 14:55 Sunny 41 5.1 21 -5.9 45 45 NNW 8 13 30.12 1020 10 16.0934 0 0
3:15 pm 15:15 Sunny 42 5.3 22 -5.8 45 45 N 7 11 30.12 1020 10 16.0934 0 0
3:35 pm 15:35 Sunny 43 6.2 20 -6.6 40 40 N 8 13 30.11 1020 10 16.0934 0 0
3:55 pm 15:55 Sunny 44 6.4 19 -7.3 37 37 N 17 28 30.1 1019 10 16.0934 0 0
4:15 pm 16:15 Sunny 43 6.2 19 -7.3 38 38 NNE 14 22 30.11 1020 10 16.0934 0 0
4:35 pm 16:35 Sunny 43 6.1 20 -6.5 40 40 N 14 22 30.11 1020 10 16.0934 0 0
4:55 pm 16:55 Sunny 43 5.9 21 -6.2 42 42 N 10 17 30.12 1020 10 16.0934 0 0
5:15 pm 17:15 Sunny 42 5.3 21 -6 44 44 NNE 9 15 30.15 1021 10 16.0934 0 0
5:35 pm 17:35 Mostly Cloudy 40 4.7 22 -5.8 47 47 NNE 12 19 30.16 1021 10 16.0934 0 0
5:55 pm 17:55 Cloudy 37 2.7 21 -6 53 53 NNE 7 11 30.2 1023 10 16.0934 0 0
6:15 pm 18:15 Partly Cloudy 34 1.2 21 -6.1 59 59 NE 7 11 30.21 1023 10 16.0934 0 0
6:35 pm 18:35 Partly Cloudy 34 1 22 -5.5 62 62 NE 6 9 30.23 1024 10 16.0934 0 0
6:55 pm 18:55 Partly Cloudy 33 0.5 22 -5.7 64 64 NE 5 7 30.24 1024 10 16.0934 0 0
7:15 pm 19:15 Partly Cloudy 32 0 21 -6 64 64 NNE 6 9 30.26 1025 10 16.0934 0 0
7:35 pm 19:35 Cloudy 31 -0.7 21 -6 68 68 NNE 6 9 30.26 1025 10 16.0934 0 0
7:55 pm 19:55 Mostly Cloudy 32 0 22 -5.7 66 66 NNE 5 7 30.27 1025 10 16.0934 0 0
8:15 pm 20:15 Mostly Cloudy 32 0 21 -6 64 64 NNE 3 6 30.27 1025 10 16.0934 0 0
8:35 pm 20:35 Partly Cloudy 31 -0.8 21 -6.3 67 67 N 3 6 30.28 1026 10 16.0934 0 0
8:55 pm 20:55 Partly Cloudy 28 -2 20 -6.4 72 72 N 6 9 30.3 1026 10 16.0934 0 0
9:15 pm 21:15 Partly Cloudy 30 -1.2 21 -6 70 70 N 5 7 30.31 1026 10 16.0934 0 0
9:35 pm 21:35 Partly Cloudy 32 0.2 21 -6 63 63 N 8 13 30.3 1026 10 16.0934 0 0
9:55 pm 21:55 Partly Cloudy 32 -0.1 22 -5.7 66 66 N 9 15 30.32 1027 10 16.0934 0 0
10:15 pm 22:15 Clear 31 -0.4 23 -5 71 71 N 8 13 30.33 1027 10 16.0934 0 0
10:35 pm 22:35 Clear 32 -0.1 23 -5 70 70 N 14 22 30.35 1028 10 16.0934 0 0
10:55 pm 22:55 Clear 31 -0.6 23 -5 72 72 N 10 17 30.36 1028 10 16.0934 0 0
11:15 pm 23:15 Clear 30 -1 23 -5.1 74 74 N 9 15 30.38 1029 10 16.0934 0 0
11:35 pm 23:35 Clear 30 -1 22 -5.3 73 73 N 10 17 30.38 1029 10 16.0934 0 0
11:55 pm 23:55 Clear 30 -1 22 -5.7 71 71 N 7 11 30.39 1029 10 16.0934 0 0

Powered by AerisWeather